Regional Weather Roundup
Issued by NWS State College, PA

Home | Current Version | Previous Version | Text Only | Print | Product List | Glossary Off
Versions: 1 2 3 4 5 6 7 8 9 10 11 12 13 14 15 16 17 18 19 20 21 22 23 24 25 26 27 28 29 30 31 32 33 34 35 36 37 38 39 40 41 42 43 44 45 46 47 48 49 50

000
ASUS41 KCTP 230010
RWRCTP

REGIONAL WEATHER ROUNDUP
NATIONAL WEATHER SERVICE STATE COLLEGE PA
800 PM EDT FRI MAY 22 2015

Note: "fair" indicates few or no clouds below 12,000 feet with no
significant weather and/or obstructions to visibility.

* = STATION THAT DOES NOT REPORT PRECIPITATION /E.G. RAIN...SNOW...ETC/
    THUNDER OR FOG.

PAZ002>004-007>009-013>016-020>023-029>032-230100-
WESTERN PENNSYLVANIA

CITY           SKY/WX    TMP DP  RH WIND       PRES   REMARKS
ERIE           CLEAR     54  29  38 W8        30.27R
MEADVILLE      CLEAR     50  18  28 VRB6      30.27R
FRANKLIN*      CLEAR     50  16  25 NW9       30.28R
NEW CASTLE     FAIR      56  33  41 N12       30.28R
BEAVER COUNTY  CLEAR     57  30  35 N9        30.25R
BUTLER*        CLEAR     55  28  35 NW6       30.27R
PITTSBURGH INT PTCLDY    60  26  27 N15       30.23R
PITTSBURGH     CLEAR     59  22  24 NW13G22   30.21R
INDIANA*       CLEAR     57  32  38 NW12G18   30.25R
LATROBE        CLEAR     59  28  31 NW16      30.23R
WASHINGTON CO* CLEAR     59  30  33 N9G17     30.24R
$$

PAZ004>006-010>012-017>019-024>028-033>037-041-042-045-046-049>053-230100-
CENTRAL PENNSYLVANIA

CITY           SKY/WX    TMP DP  RH WIND       PRES   REMARKS
BRADFORD       CLEAR     49  20  31 NW22G29   30.20R
DUBOIS         CLEAR     54  29  38 NW9       30.20R
CLEARFIELD     CLEAR     56  25  30 NW14G24   30.19R
JOHNSTOWN      CLEAR     55  23  28 NW15G23   30.19R
ALTOONA        CLEAR     60  25  26 NW18G30   30.17R
STATE COLLEGE  CLEAR     59  21  23 NW12G24   30.15R
WILLIAMSPORT   CLEAR     63  24  22 NW13G22   30.08R
SELINSGROVE    CLEAR     64  24  21 W10G17    30.10R
FT INDIANTOWN  CLEAR     67  28  23 W8        30.08R
CAPITAL CITY   PTCLDY    68  28  22 NW16      30.09R
HARRISBURG     PTCLDY    69  30  23 NW20G33   30.08R
YORK           PTCLDY    66  44  45 W8        30.10R
$$

PAZ038>040-043-044-047-048-054-055-060>062-067>071-230100-
EASTERN PENNSYLVANIA

CITY           SKY/WX    TMP DP  RH WIND       PRES   REMARKS
SCRANTON       CLEAR     61  34  36 N17G25    30.06R
MOUNT POCONO   PTCLDY    58  24  27 NW10      30.04R
ALLENTOWN      PTCLDY    67  39  35 W10G21    30.02R
QUAKERTOWN*    PTCLDY    66  37  34 W5        30.04R
READING        PTCLDY    69  27  20 W16G29    30.05R
LANCASTER      CLEAR     66  33  29 NW15      30.07R
COATESVILLE    CLEAR     66  41  39 W12G18    30.07R
POTTSTOWN      CLEAR     68  33  27 W7        30.05R
BLUE BELL      CLEAR     70  34  26 W10       30.03R
DOYLESTOWN     CLEAR     66  32  28 W9        30.02R
WILLOW GROVE   NOT AVBL
NORTH PHILA    CLEAR     72  28  19 W13G25    30.04R
PHILADELPHIA   PTCLDY    73  39  29 W13       30.05R
$$



USA.gov is the U.S. government's official web portal to all federal, state and local government web resources and services.